GW6041 Weather Reports


Display with metric or nautical units.
time (UTC)temp
F
wind
direction
speed
MPH
gust
MPH
rain 1hr
in
rain 24hr
in
rain mn
in
humidity
%
barometer
mb
20260507133106 44 144 7.0 9.0 0.00 0.00 0.00 60 1016.7
20260507132603 44 99 4.0 8.0 0.00 0.00 0.00 62 1016.4
20260507132059 44 100 4.0 8.0 0.00 0.00 0.00 61 1016.5
20260507131556 43 72 3.0 6.0 0.00 0.00 0.00 64 1016.6
20260507131054 43 137 3.0 8.0 0.00 0.00 0.00 63 1016.5
20260507130550 43 93 6.0 10.0 0.00 0.00 0.00 63 1016.6
20260507130048 43 59 1.0 9.0 0.00 0.00 0.00 65 1016.7
20260507125547 42 103 5.0 8.0 0.00 0.00 0.00 62 1016.6
20260507125044 42 129 4.0 11.0 0.00 0.00 0.00 62 1016.4
20260507124540 43 157 4.0 12.0 0.00 0.00 0.00 61 1016.3
20260507124038 42 150 8.0 13.0 0.00 0.00 0.00 63 1016.5
20260507123536 42 159 6.0 11.0 0.00 0.00 0.00 61 1016.3
20260507123032 43 155 6.0 9.0 0.00 0.00 0.00 62 1016.3
20260507122528 43 153 10.0 11.0 0.00 0.00 0.00 61 1016.3
20260507122024 43 176 16.0 19.0 0.00 0.00 0.00 62 1016.2
20260507121519 44 274 0.0 7.0 0.00 0.00 0.00 63 1016.1
20260507121015 44 150 4.0 4.0 0.00 0.00 0.00 68 1016.1
20260507120512 43 244 8.0 11.0 0.00 0.00 0.00 65 1016.0
20260507120009 43 274 11.0 13.0 0.00 0.00 0.00 67 1015.8
20260507115505 44 287 12.0 15.0 0.00 0.00 0.00 65 1015.8
20260507115001 44 285 9.0 11.0 0.00 0.00 0.00 65 1015.8
20260507114457 44 266 6.0 8.0 0.00 0.00 0.00 65 1015.8
20260507113955 44 263 0.0 3.0 0.00 0.00 0.00 62 1015.8
20260507113452 44 107 2.0 11.0 0.00 0.00 0.00 57 1015.6
20260507112949 44 163 7.0 9.0 0.00 0.00 0.00 58 1015.4
20260507112446 44 145 7.0 11.0 0.00 0.00 0.00 56 1015.5
20260507111943 44 165 7.0 14.0 0.00 0.00 0.00 56 1015.6
20260507111440 44 157 5.0 6.0 0.00 0.00 0.00 59 1015.3
20260507110936 44 286 2.0 5.0 0.00 0.00 0.00 62 1015.4
20260507110433 44 324 0.0 2.0 0.00 0.00 0.00 63 1015.3
20260507105929 44 312 3.0 6.0 0.00 0.00 0.00 67 1015.3
20260507105426 44 284 7.0 7.0 0.00 0.00 0.00 70 1015.2
20260507104923 43 277 3.0 9.0 0.00 0.00 0.00 72 1015.3
20260507104420 43 305 6.0 9.0 0.00 0.00 0.00 72 1015.2
20260507103915 43 287 6.0 10.0 0.00 0.00 0.00 73 1015.1
20260507103413 42 282 6.0 12.0 0.00 0.00 0.00 74 1015.2
20260507102909 43 278 8.0 11.0 0.00 0.00 0.00 71 1014.9
20260507102406 43 316 5.0 7.0 0.00 0.00 0.00 72 1015.0
20260507101902 43 280 8.0 11.0 0.00 0.00 0.00 71 1015.1
20260507101402 43 249 6.0 11.0 0.00 0.00 0.00 69 1014.9
20260507100859 44 288 8.0 11.0 0.00 0.00 0.00 70 1014.8
20260507100357 43 199 1.0 5.0 0.00 0.00 0.00 63 1014.9
20260507095855 42 275 6.0 10.0 0.00 0.00 0.00 74 1014.8
20260507095351 42 279 5.0 9.0 0.00 0.00 0.00 73 1014.7
20260507094849 42 304 5.0 11.0 0.00 0.00 0.00 75 1014.8
20260507094345 42 280 6.0 13.0 0.00 0.00 0.00 75 1014.8
20260507093842 42 291 8.0 12.0 0.00 0.00 0.00 71 1014.8
20260507093340 42 296 9.0 11.0 0.00 0.00 0.00 73 1014.6
20260507092838 43 279 5.0 8.0 0.00 0.00 0.00 66 1014.8
20260507092334 44 262 6.0 9.0 0.00 0.00 0.00 64 1014.7
20260507091830 44 157 2.0 9.0 0.00 0.00 0.00 56 1014.7
20260507091327 44 147 2.0 4.0 0.00 0.00 0.00 58 1014.5
20260507090823 44 152 5.0 11.0 0.00 0.00 0.00 54 1014.6
20260507090319 44 170 3.0 6.0 0.00 0.00 0.00 56 1014.5
20260507085816 44 207 2.0 6.0 0.00 0.00 0.00 56 1014.4
20260507085313 45 343 3.0 6.0 0.00 0.00 0.00 55 1014.2
20260507084811 44 309 2.0 3.0 0.00 0.00 0.00 60 1014.3
20260507084307 44 109 1.0 2.0 0.00 0.00 0.00 58 1014.2
20260507083805 44 351 2.0 3.0 0.00 0.00 0.00 56 1014.4
20260507083301 43 349 4.0 4.0 0.00 0.00 0.00 56 1014.1
20260507082757 43 315 6.0 7.0 0.00 0.00 0.00 62 1014.2
20260507082253 43 302 5.0 5.0 0.00 0.00 0.00 64 1014.3
20260507081750 43 265 4.0 6.0 0.00 0.00 0.00 59 1014.1
20260507081246 44 246 2.0 5.0 0.00 0.00 0.00 61 1014.1
20260507080742 44 294 3.0 5.0 0.00 0.00 0.00 57 1014.1
20260507080239 44 171 1.0 8.0 0.00 0.00 0.00 53 1014.0
20260507075734 44 148 6.0 11.0 0.00 0.00 0.00 55 1014.1
20260507075231 44 146 2.0 8.0 0.00 0.00 0.00 57 1014.1
20260507074727 44 176 0.0 8.0 0.00 0.00 0.00 56 1014.0
20260507074225 44 177 3.0 8.0 0.00 0.00 0.00 57 1013.9
20260507073722 44 144 4.0 11.0 0.00 0.00 0.00 56 1013.9
20260507073218 44 165 5.0 8.0 0.00 0.00 0.00 54 1013.9
20260507072716 44 151 5.0 9.0 0.00 0.00 0.00 54 1013.7
20260507072213 44 152 5.0 10.0 0.00 0.00 0.00 55 1013.8
20260507071711 45 152 3.0 11.0 0.00 0.00 0.00 55 1013.7
20260507071207 45 165 4.0 9.0 0.00 0.00 0.00 57 1013.9
20260507070704 45 164 6.0 11.0 0.00 0.00 0.00 55 1013.7
20260507070201 45 82 1.0 3.0 0.00 0.00 0.00 58 1013.6
20260507065657 44 42 0.0 4.0 0.00 0.00 0.00 55 1013.6
20260507065154 43 139 2.0 5.0 0.00 0.00 0.00 57 1013.7
20260507064651 42 141 5.0 8.0 0.00 0.00 0.00 57 1013.6
20260507064150 43 151 7.0 7.0 0.00 0.00 0.00 58 1013.6
20260507063647 42 153 5.0 8.0 0.00 0.00 0.00 58 1013.4
20260507063144 43 162 9.0 12.0 0.00 0.00 0.00 62 1013.4
20260507062641 42 125 4.0 5.0 0.00 0.00 0.00 65 1013.4
20260507062138 41 137 4.0 4.0 0.00 0.00 0.00 66 1013.3
20260507061636 41 117 3.0 5.0 0.00 0.00 0.00 66 1013.4
20260507061134 41 124 3.0 4.0 0.00 0.00 0.00 66 1013.3
20260507060632 41 145 6.0 7.0 0.00 0.00 0.00 66 1013.4
20260507060128 41 83 2.0 6.0 0.00 0.00 0.00 69 1013.5
20260507055623 40 87 1.0 6.0 0.00 0.00 0.00 68 1013.4
20260507055120 40 104 2.0 3.0 0.00 0.00 0.00 72 1013.4
20260507054615 40 35 0.0 2.0 0.00 0.00 0.00 73 1013.3
20260507054113 40 59 3.0 3.0 0.00 0.00 0.00 75 1013.3
20260507053611 39 49 4.0 4.0 0.00 0.00 0.00 76 1013.2
20260507053109 39 55 7.0 8.0 0.00 0.00 0.00 80 1013.1
20260507052607 39 84 4.0 5.0 0.00 0.00 0.00 83 1013.2
20260507052103 39 38 2.0 3.0 0.00 0.00 0.00 84 1013.3
20260507051601 38 45 2.0 3.0 0.00 0.00 0.00 85 1013.2
20260507051057 38 81 1.0 2.0 0.00 0.00 0.00 86 1013.2
20260507050554 38 55 1.0 1.0 0.00 0.00 0.00 85 1013.1
20260507050050 38 9 1.0 2.0 0.00 0.00 0.00 85 1013.2
20260507045547 38 99 2.0 4.0 0.00 0.00 0.00 85 1013.1
20260507045044 38 46 3.0 4.0 0.00 0.00 0.00 86 1013.2
20260507044541 37 77 4.0 4.0 0.00 0.00 0.00 87 1013.1
20260507044038 37 67 3.0 4.0 0.00 0.00 0.00 87 1013.2
20260507043533 37 70 3.0 3.0 0.00 0.00 0.00 87 1012.9
20260507043031 37 47 4.0 5.0 0.00 0.00 0.00 87 1013.3
20260507042527 37 79 2.0 2.0 0.00 0.00 0.00 87 1012.9
20260507042023 37 94 2.0 3.0 0.00 0.00 0.00 88 1013.2
20260507041520 36 77 3.0 4.0 0.00 0.00 0.00 88 1013.0
20260507041017 36 92 2.0 2.0 0.00 0.00 0.00 88 1013.1
20260507040513 36 96 2.0 3.0 0.00 0.00 0.00 89 1013.1
20260507040009 36 32 2.0 3.0 0.00 0.00 0.00 90 1013.2
20260507035505 36 66 2.0 3.0 0.00 0.00 0.00 91 1013.0
20260507035002 36 104 0.0 3.0 0.00 0.00 0.00 92 1012.9
20260507034459 36 68 3.0 5.0 0.00 0.00 0.00 92 1012.9
20260507033957 35 59 4.0 5.0 0.00 0.00 0.00 92 1012.8
20260507033454 35 64 4.0 4.0 0.00 0.00 0.00 92 1012.7
20260507032951 35 69 4.0 4.0 0.00 0.00 0.00 93 1012.9
20260507032449 35 69 2.0 3.0 0.00 0.00 0.00 93 1012.9
20260507031944 35 72 2.0 4.0 0.00 0.00 0.00 93 1012.8
20260507031441 35 71 3.0 4.0 0.00 0.00 0.00 93 1012.7
20260507030938 35 67 4.0 5.0 0.00 0.00 0.00 92 1012.7
20260507030435 35 61 4.0 4.0 0.00 0.00 0.00 92 1012.7
20260507025932 35 68 4.0 4.0 0.00 0.00 0.00 92 1012.4
20260507025429 35 88 4.0 5.0 0.00 0.00 0.00 91 1012.7
20260507024927 35 50 3.0 3.0 0.00 0.00 0.00 92 1012.7
20260507024424 35 76 3.0 4.0 0.00 0.00 0.00 92 1012.6
20260507023920 35 66 4.0 5.0 0.00 0.00 0.00 92 1012.5
20260507023417 35 64 4.0 4.0 0.00 0.00 0.00 92 1012.6
20260507022914 35 77 3.0 4.0 0.00 0.00 0.00 92 1012.5
20260507022411 35 57 6.0 7.0 0.00 0.00 0.00 92 1012.6
20260507021907 35 63 4.0 5.0 0.00 0.00 0.00 91 1012.5
20260507021402 35 57 4.0 5.0 0.00 0.00 0.00 91 1012.6
20260507020901 35 54 2.0 4.0 0.00 0.00 0.00 92 1012.6
20260507020357 34 78 4.0 4.0 0.00 0.00 0.00 92 1012.7
20260507015854 34 52 5.0 6.0 0.00 0.00 0.00 91 1012.6
20260507015352 34 68 5.0 6.0 0.00 0.00 0.00 91 1012.6
20260507014848 34 79 5.0 5.0 0.00 0.00 0.00 91 1012.7
20260507014344 34 91 4.0 4.0 0.02 0.00 0.00 90 1012.5
20260507013841 34 62 6.0 9.0 0.02 0.00 0.00 90 1012.6
20260507013338 34 55 6.0 7.0 0.00 0.00 0.00 88 1012.6
20260507012836 34 53 5.0 5.0 0.00 0.00 0.00 87 1012.6
20260507012331 34 41 6.0 6.0 0.00 0.00 0.00 86 1012.6
20260507011829 34 53 4.0 5.0 0.00 0.00 0.00 85 1012.6
20260507011325 34 106 3.0 6.0 0.00 0.00 0.00 85 1012.3
20260507010825 34 58 6.0 6.0 0.00 0.00 0.00 84 1012.4
20260507010321 34 85 3.0 4.0 0.00 0.00 0.00 85 1012.3
20260507005819 34 75 5.0 8.0 0.00 0.00 0.00 85 1012.3
20260507005316 33 61 6.0 7.0 0.00 0.00 0.00 85 1012.1
20260507004812 34 51 5.0 7.0 0.00 0.00 0.00 85 1012.1
20260507004310 34 68 5.0 6.0 0.00 0.00 0.00 84 1012.1
20260507003806 33 65 6.0 6.0 0.00 0.00 0.00 86 1012.0
20260507003301 33 77 4.0 6.0 0.00 0.00 0.00 86 1012.1
20260507002757 33 88 4.0 6.0 0.00 0.00 0.00 85 1012.0
20260507002253 33 67 5.0 6.0 0.00 0.00 0.00 86 1011.9
20260507001750 33 68 6.0 6.0 0.00 0.00 0.00 86 1011.9
20260507001248 32 69 7.0 9.0 0.00 0.00 0.00 86 1011.9
20260507000744 32 67 5.0 6.0 0.00 0.00 0.00 87 1011.9
20260507000240 33 63 8.0 9.0 0.00 0.00 0.00 84 1012.0
20260506235737 33 72 5.0 7.0 0.00 0.00 0.00 86 1011.9
20260506235232 33 64 9.0 9.0 0.00 0.00 0.00 85 1011.8
20260506234729 33 56 8.0 9.0 0.00 0.00 0.00 86 1011.8
20260506234227 33 82 5.0 6.0 0.00 0.00 0.00 84 1011.7
20260506233724 33 77 5.0 6.0 0.00 0.00 0.00 83 1011.7
20260506233220 33 91 4.0 6.0 0.00 0.00 0.00 84 1011.6
20260506232717 33 79 6.0 6.0 0.00 0.00 0.00 84 1011.6
20260506232212 33 74 6.0 6.0 0.00 0.00 0.00 84 1011.6
20260506231709 33 72 5.0 7.0 0.00 0.00 0.00 85 1011.6
20260506231208 33 70 7.0 8.0 0.00 0.00 0.00 86 1011.4
20260506230704 33 57 7.0 9.0 0.00 0.00 0.00 85 1011.5
20260506230201 33 61 8.0 9.0 0.00 0.00 0.00 82 1011.5
20260506225657 33 78 5.0 6.0 0.00 0.00 0.00 82 1011.4
20260506225154 33 62 7.0 8.0 0.00 0.00 0.00 83 1011.7
20260506224651 32 76 4.0 5.0 0.00 0.00 0.00 84 1011.4
20260506224147 32 74 5.0 6.0 0.00 0.00 0.00 84 1011.6
20260506223644 32 68 6.0 7.0 0.00 0.00 0.00 85 1011.5
20260506223140 32 76 7.0 9.0 0.00 0.00 0.00 86 1011.4
20260506222637 32 63 8.0 9.0 0.00 0.00 0.00 84 1011.5
20260506222133 32 84 5.0 6.0 0.00 0.00 0.00 85 1011.5
20260506221631 32 66 9.0 10.0 0.00 0.00 0.00 84 1011.3
20260506221129 32 78 6.0 6.0 0.00 0.00 0.00 84 1011.5
20260506220625 32 79 6.0 6.0 0.00 0.00 0.00 85 1011.3
20260506220120 32 63 9.0 9.0 0.00 0.00 0.00 84 1011.4
20260506215618 32 74 7.0 10.0 0.00 0.00 0.00 84 1011.2
20260506215113 32 53 9.0 10.0 0.00 0.00 0.00 82 1011.2
20260506214610 33 74 6.0 7.0 0.00 0.00 0.00 81 1011.3
20260506214107 32 84 4.0 5.0 0.00 0.00 0.00 84 1011.4
20260506213605 32 67 7.0 10.0 0.00 0.00 0.00 84 1011.2
20260506213102 33 81 5.0 6.0 0.00 0.00 0.00 81 1011.3
20260506212559 33 83 4.0 6.0 0.00 0.00 0.00 81 1011.3
20260506212054 33 82 6.0 6.0 0.00 0.00 0.00 82 1011.2
20260506211550 32 79 6.0 8.0 0.00 0.00 0.00 83 1011.4
20260506211048 33 67 9.0 10.0 0.00 0.00 0.00 81 1011.4
20260506210544 33 74 6.0 7.0 0.00 0.00 0.00 82 1011.3
20260506210041 33 81 5.0 6.0 0.00 0.00 0.00 81 1011.0
20260506205537 34 73 7.0 8.0 0.00 0.00 0.00 81 1011.2
20260506205032 33 68 6.0 7.0 0.00 0.00 0.00 83 1011.2
20260506204531 34 64 8.0 9.0 0.00 0.00 0.00 80 1011.1
20260506204027 35 74 6.0 6.0 0.00 0.00 0.00 77 1011.3
20260506203526 36 78 4.0 6.0 0.00 0.00 0.00 77 1011.0
20260506203022 36 67 7.0 8.0 0.00 0.00 0.00 79 1011.1
20260506202519 35 58 8.0 11.0 0.00 0.00 0.00 79 1010.9
20260506202016 37 62 7.0 9.0 0.00 0.00 0.00 75 1011.0
20260506201514 36 71 8.0 8.0 0.00 0.00 0.00 77 1011.0
20260506201010 37 67 8.0 8.0 0.00 0.00 0.00 75 1011.0
20260506200506 38 78 5.0 5.0 0.00 0.00 0.00 74 1011.1
20260506200003 38 73 5.0 6.0 0.00 0.00 0.00 73 1010.9
20260506195500 39 83 3.0 3.0 0.00 0.00 0.00 72 1010.9
20260506194956 39 73 4.0 5.0 0.00 0.00 0.00 72 1010.9
20260506194454 39 104 4.0 4.0 0.00 0.00 0.00 72 1010.7
20260506193950 39 60 3.0 5.0 0.00 0.00 0.00 72 1011.0
20260506193448 40 71 2.0 4.0 0.00 0.00 0.00 72 1011.0
20260506192944 40 110 3.0 7.0 0.00 0.00 0.00 72 1010.9
20260506192441 40 106 3.0 7.0 0.00 0.00 0.00 72 1010.7
20260506191938 40 131 5.0 6.0 0.00 0.00 0.00 72 1010.8
20260506191434 40 134 3.0 4.0 0.00 0.00 0.00 72 1010.8
20260506190931 40 178 4.0 8.0 0.00 0.00 0.00 72 1010.7
20260506190427 40 136 4.0 7.0 0.00 0.00 0.00 71 1010.7
20260506185925 41 85 3.0 6.0 0.00 0.00 0.00 71 1010.6
20260506185422 41 176 2.0 7.0 0.00 0.00 0.00 70 1010.5
20260506184919 41 104 2.0 4.0 0.00 0.00 0.00 69 1010.6
20260506184415 41 125 1.0 7.0 0.00 0.00 0.00 69 1010.6
20260506183913 41 155 4.0 10.0 0.00 0.00 0.00 69 1010.3
20260506183408 41 116 3.0 7.0 0.00 0.00 0.00 70 1010.6
20260506182905 42 134 4.0 6.0 0.00 0.00 0.00 69 1010.4
20260506182402 42 127 5.0 9.0 0.00 0.00 0.00 69 1010.5
20260506181859 42 126 4.0 7.0 0.00 0.00 0.00 68 1010.3
20260506181358 42 162 5.0 8.0 0.00 0.00 0.00 64 1010.6
20260506180854 42 174 4.0 8.0 0.00 0.00 0.00 65 1010.4
20260506180350 42 159 5.0 9.0 0.00 0.00 0.00 64 1010.5
20260506175847 42 149 5.0 8.0 0.00 0.00 0.00 65 1010.4
20260506175344 42 172 7.0 9.0 0.00 0.00 0.00 64 1010.3
20260506174841 42 162 9.0 10.0 0.00 0.00 0.00 64 1010.2
20260506174339 42 176 3.0 9.0 0.00 0.00 0.00 65 1010.4
20260506173836 42 142 5.0 10.0 0.00 0.00 0.00 65 1010.3
20260506173332 42 144 3.0 9.0 0.00 0.00 0.00 66 1010.4
20260506172830 42 148 7.0 9.0 0.00 0.00 0.00 66 1010.1
20260506172326 42 155 11.0 12.0 0.00 0.00 0.00 66 1010.3
20260506171824 43 152 6.0 10.0 0.00 0.00 0.00 66 1010.2
20260506171321 43 164 6.0 12.0 0.00 0.00 0.00 66 1010.3
20260506170819 43 162 6.0 11.0 0.00 0.00 0.00 66 1010.2
20260506170314 44 116 5.0 12.0 0.00 0.00 0.00 65 1010.1
20260506165814 44 157 6.0 13.0 0.00 0.00 0.00 62 1010.1
20260506165310 44 149 8.0 10.0 0.00 0.00 0.00 61 1010.1
20260506164807 43 144 5.0 7.0 0.00 0.00 0.00 63 1010.1
20260506164304 43 172 5.0 10.0 0.00 0.00 0.00 62 1010.0
20260506163800 43 161 8.0 10.0 0.00 0.00 0.00 61 1010.1
20260506163255 43 140 4.0 9.0 0.00 0.00 0.00 63 1009.9
20260506162751 43 167 9.0 11.0 0.00 0.00 0.00 61 1010.0
20260506162250 43 120 5.0 9.0 0.00 0.00 0.00 60 1009.9
20260506161747 44 137 6.0 11.0 0.00 0.00 0.00 60 1010.0
20260506161244 45 75 2.0 12.0 0.00 0.00 0.00 58 1010.0
20260506160741 46 145 6.0 10.0 0.00 0.00 0.00 57 1009.9
20260506160238 46 147 8.0 12.0 0.00 0.00 0.00 56 1009.9
20260506155737 46 157 4.0 9.0 0.00 0.00 0.00 56 1009.7
20260506155233 46 164 4.0 11.0 0.00 0.00 0.00 55 1009.8
20260506153340 46 310 3.0 6.0 0.00 0.00 0.00 55 1009.7
20260506152837 46 284 5.0 6.0 0.00 0.00 0.00 59 1009.5
20260506152334 47 271 3.0 8.0 0.00 0.00 0.00 56 1009.6
20260506151833 46 16 4.0 10.0 0.00 0.00 0.00 54 1009.7
20260506151329 46 296 6.0 8.0 0.00 0.00 0.00 55 1009.8
20260506150826 46 312 5.0 6.0 0.00 0.00 0.00 53 1009.8
20260506150323 46 20 3.0 5.0 0.00 0.00 0.00 54 1009.6
20260506145820 46 292 6.0 6.0 0.00 0.00 0.00 58 1009.6
20260506145316 46 305 6.0 7.0 0.00 0.00 0.00 56 1009.4
20260506144814 46 307 5.0 6.0 0.00 0.00 0.00 54 1009.6
20260506144310 46 304 7.0 8.0 0.00 0.00 0.00 57 1009.5
20260506143809 45 28 4.0 6.0 0.00 0.00 0.00 54 1009.3
20260506143305 45 338 1.0 5.0 0.00 0.00 0.00 55 1009.5
20260506142804 46 298 4.0 4.0 0.00 0.00 0.00 54 1009.6
20260506142301 46 294 4.0 4.0 0.00 0.00 0.00 54 1009.6
20260506141759 46 302 3.0 4.0 0.00 0.00 0.00 54 1009.6
20260506141258 46 333 2.0 6.0 0.00 0.00 0.00 52 1009.4
20260506140755 46 324 4.0 6.0 0.00 0.00 0.00 54 1009.5
20260506140252 47 286 4.0 6.0 0.00 0.00 0.00 55 1009.5
20260506135749 46 290 4.0 5.0 0.00 0.00 0.00 55 1009.4
20260506135245 46 279 4.0 7.0 0.00 0.00 0.00 54 1009.4
20260506134742 46 273 2.0 4.0 0.00 0.00 0.00 56 1009.4
20260506134238 46 307 4.0 5.0 0.00 0.00 0.00 54 1009.6
20260506133736 46 288 4.0 10.0 0.00 0.00 0.00 60 1009.3